Time,TemperatureF,DewpointF,PressureIn,WindDirection,WindDirectionDegrees,WindSpeedMPH,WindSpeedGustMPH,Humidity,HourlyPrecipIn,Conditions,Clouds,dailyrainin,SoftwareType,DateUTC
2013-10-30 00:09:00,71.1,70.5,29.93,SE,135,4.3,-999.0,98,-99.99,,,0.00,Acu-Link.com,2013-10-30 05:09:00,
2013-10-30 00:24:00,70.9,70.3,29.93,SSE,157,1.1,-999.0,98,-99.99,,,0.00,Acu-Link.com,2013-10-30 05:24:00,
2013-10-30 00:39:00,70.3,69.7,29.93,SSW,202,2.7,-999.0,98,-99.99,,,0.00,Acu-Link.com,2013-10-30 05:39:00,
2013-10-30 00:54:00,70.3,69.7,29.92,South,180,4.7,-999.0,98,-99.99,,,0.00,Acu-Link.com,2013-10-30 05:54:00,
2013-10-30 01:09:00,70.2,69.6,29.92,SSW,202,4.3,-999.0,98,-99.99,,,0.00,Acu-Link.com,2013-10-30 06:09:00,
2013-10-30 01:25:00,70.2,69.6,29.92,ESE,112,2.2,-999.0,98,-99.99,,,0.00,Acu-Link.com,2013-10-30 06:25:00,
2013-10-30 01:40:00,70.0,69.4,29.91,South,180,4.3,-999.0,98,-99.99,,,0.00,Acu-Link.com,2013-10-30 06:40:00,
2013-10-30 01:55:00,70.0,69.4,29.91,SSE,157,6.7,-999.0,98,-99.99,,,0.00,Acu-Link.com,2013-10-30 06:55:00,
2013-10-30 02:10:00,70.0,69.4,29.91,South,180,7.4,-999.0,98,-99.99,,,0.00,Acu-Link.com,2013-10-30 07:10:00,
2013-10-30 02:25:00,69.6,69.0,29.91,SSE,157,3.1,-999.0,98,-99.99,,,0.00,Acu-Link.com,2013-10-30 07:25:00,
2013-10-30 02:40:00,69.8,69.2,29.91,SSE,157,2.7,-999.0,98,-99.99,,,0.00,Acu-Link.com,2013-10-30 07:40:00,
2013-10-30 02:55:00,69.8,69.2,29.91,SSE,157,4.7,-999.0,98,-99.99,,,0.00,Acu-Link.com,2013-10-30 07:55:00,
2013-10-30 03:10:00,69.8,69.2,29.91,SSE,157,3.1,-999.0,98,-99.99,,,0.00,Acu-Link.com,2013-10-30 08:10:00,
2013-10-30 03:26:00,69.6,69.0,29.92,SE,135,3.8,-999.0,98,-99.99,,,0.00,Acu-Link.com,2013-10-30 08:26:00,
2013-10-30 03:41:00,69.8,69.2,29.91,ESE,112,2.7,-999.0,98,-99.99,,,0.00,Acu-Link.com,2013-10-30 08:41:00,
2013-10-30 03:56:00,69.8,69.2,29.91,South,180,3.8,-999.0,98,-99.99,,,0.00,Acu-Link.com,2013-10-30 08:56:00,
2013-10-30 04:11:00,69.6,69.0,29.90,SSE,157,3.8,-999.0,98,-99.99,,,0.00,Acu-Link.com,2013-10-30 09:11:00,
2013-10-30 04:26:00,69.4,68.8,29.90,ESE,112,3.8,-999.0,98,-99.99,,,0.00,Acu-Link.com,2013-10-30 09:26:00,
2013-10-30 04:41:00,69.4,68.8,29.89,SSE,157,3.1,-999.0,98,-99.99,,,0.00,Acu-Link.com,2013-10-30 09:41:00,
2013-10-30 04:56:00,69.6,69.0,29.89,South,180,2.7,-999.0,98,-99.99,,,0.00,Acu-Link.com,2013-10-30 09:56:00,
2013-10-30 05:12:00,69.4,68.8,29.89,South,180,4.7,-999.0,98,-99.99,,,0.00,Acu-Link.com,2013-10-30 10:12:00,
2013-10-30 05:27:00,69.4,68.8,29.88,South,180,1.1,-999.0,98,-99.99,,,0.00,Acu-Link.com,2013-10-30 10:27:00,
2013-10-30 05:42:00,68.9,68.3,29.88,SSW,202,0.0,-999.0,98,-99.99,,,0.00,Acu-Link.com,2013-10-30 10:42:00,
2013-10-30 05:57:00,68.7,68.1,29.89,South,180,1.1,-999.0,98,-99.99,,,0.00,Acu-Link.com,2013-10-30 10:57:00,
2013-10-30 06:13:00,68.5,68.0,29.89,SE,135,2.7,-999.0,98,-99.99,,,0.00,Acu-Link.com,2013-10-30 11:13:00,
2013-10-30 06:28:00,68.5,68.0,29.89,SSE,157,2.2,-999.0,98,-99.99,,,0.00,Acu-Link.com,2013-10-30 11:28:00,
2013-10-30 06:43:00,68.4,67.8,29.88,SSE,157,0.0,-999.0,98,-99.99,,,0.00,Acu-Link.com,2013-10-30 11:43:00,
2013-10-30 06:58:00,68.4,67.8,29.86,ESE,112,2.2,-999.0,98,-99.99,,,0.00,Acu-Link.com,2013-10-30 11:58:00,
2013-10-30 07:13:00,68.4,67.8,29.86,ESE,112,2.2,-999.0,98,-99.99,,,0.00,Acu-Link.com,2013-10-30 12:13:00,
2013-10-30 07:29:00,68.5,66.1,29.87,South,180,4.7,-999.0,92,-99.99,,,0.00,Acu-Link.com,2013-10-30 12:29:00,
2013-10-30 07:44:00,68.5,39.8,29.86,SSE,157,1.6,-999.0,35,-99.99,,,0.00,Acu-Link.com,2013-10-30 12:44:00,
2013-10-30 07:59:00,68.5,68.2,29.86,SSE,157,0.0,-999.0,99,-99.99,,,0.00,Acu-Link.com,2013-10-30 12:59:00,
2013-10-30 08:14:00,68.9,68.6,29.85,SE,135,2.2,-999.0,99,-99.99,,,0.00,Acu-Link.com,2013-10-30 13:14:00,
2013-10-30 08:29:00,69.8,69.5,29.85,ESE,112,1.6,-999.0,99,-99.99,,,0.00,Acu-Link.com,2013-10-30 13:29:00,
2013-10-30 08:45:00,70.3,70.0,29.84,SSE,157,3.8,-999.0,99,-99.99,,,0.00,Acu-Link.com,2013-10-30 13:45:00,
2013-10-30 09:00:00,70.7,70.1,29.85,ESE,112,4.7,-999.0,98,-99.99,,,0.00,Acu-Link.com,2013-10-30 14:00:00,
2013-10-30 09:15:00,71.4,70.8,29.85,ESE,112,3.8,-999.0,98,-99.99,,,0.00,Acu-Link.com,2013-10-30 14:15:00,
2013-10-30 09:30:00,72.0,71.4,29.85,South,180,4.7,-999.0,98,-99.99,,,0.00,Acu-Link.com,2013-10-30 14:30:00,
2013-10-30 09:45:00,72.5,71.9,29.87,SSW,202,5.1,-999.0,98,-99.99,,,0.00,Acu-Link.com,2013-10-30 14:45:00,
2013-10-30 10:01:00,73.6,73.0,29.86,South,180,3.8,-999.0,98,-99.99,,,0.00,Acu-Link.com,2013-10-30 15:01:00,
2013-10-30 10:16:00,74.1,73.5,29.86,SSE,157,2.7,-999.0,98,-99.99,,,0.00,Acu-Link.com,2013-10-30 15:16:00,
2013-10-30 10:31:00,74.1,73.5,29.87,South,180,5.1,-999.0,98,-99.99,,,0.00,Acu-Link.com,2013-10-30 15:31:00,
2013-10-30 10:46:00,74.1,73.5,29.87,South,180,7.4,-999.0,98,-99.99,,,0.00,Acu-Link.com,2013-10-30 15:46:00,
2013-10-30 11:02:00,74.1,73.5,29.87,SSE,157,4.3,-999.0,98,-99.99,,,0.00,Acu-Link.com,2013-10-30 16:02:00,
2013-10-30 11:17:00,74.7,74.1,29.87,South,180,4.3,-999.0,98,-99.99,,,0.00,Acu-Link.com,2013-10-30 16:17:00,
2013-10-30 11:32:00,74.5,73.9,29.87,South,180,4.7,-999.0,98,-99.99,,,0.00,Acu-Link.com,2013-10-30 16:32:00,
2013-10-30 11:47:00,74.7,74.1,29.88,SSW,202,1.6,-999.0,98,-99.99,,,0.00,Acu-Link.com,2013-10-30 16:47:00,
2013-10-30 12:02:00,75.2,74.6,29.87,South,180,6.3,-999.0,98,-99.99,,,0.00,Acu-Link.com,2013-10-30 17:02:00,
2013-10-30 12:18:00,75.0,74.4,29.86,South,180,5.8,-999.0,98,-99.99,,,0.00,Acu-Link.com,2013-10-30 17:18:00,
2013-10-30 12:33:00,75.4,74.8,29.86,South,180,3.8,-999.0,98,-99.99,,,0.00,Acu-Link.com,2013-10-30 17:33:00,
2013-10-30 12:48:00,75.7,75.1,29.86,SSW,202,2.2,-999.0,98,-99.99,,,0.00,Acu-Link.com,2013-10-30 17:48:00,
2013-10-30 13:03:00,75.2,74.6,29.86,SSW,202,3.1,-999.0,98,-99.99,,,0.00,Acu-Link.com,2013-10-30 18:03:00,
2013-10-30 13:18:00,75.6,75.0,29.86,SSW,202,2.7,-999.0,98,-99.99,,,0.00,Acu-Link.com,2013-10-30 18:18:00,
2013-10-30 13:34:00,75.4,74.8,29.86,SSW,202,6.3,-999.0,98,-99.99,,,0.00,Acu-Link.com,2013-10-30 18:34:00,
2013-10-30 13:49:00,75.2,74.6,29.85,SSW,202,5.8,-999.0,98,-99.99,,,0.00,Acu-Link.com,2013-10-30 18:49:00,
2013-10-30 14:04:00,74.7,74.1,29.85,SSW,202,4.3,-999.0,98,-99.99,,,0.00,Acu-Link.com,2013-10-30 19:04:00,
2013-10-30 14:19:00,73.9,73.3,29.84,South,180,3.1,-999.0,98,-99.99,,,0.00,Acu-Link.com,2013-10-30 19:19:00,
2013-10-30 14:34:00,73.8,73.2,29.82,SSW,202,4.7,-999.0,98,-99.99,,,0.00,Acu-Link.com,2013-10-30 19:34:00,
2013-10-30 14:50:00,74.5,73.9,29.81,SE,135,2.7,-999.0,98,-99.99,,,0.00,Acu-Link.com,2013-10-30 19:50:00,
2013-10-30 15:05:00,75.2,74.6,29.80,South,180,3.1,-999.0,98,-99.99,,,0.00,Acu-Link.com,2013-10-30 20:05:00,
2013-10-30 15:20:00,75.6,75.0,29.80,ENE,67,3.8,-999.0,98,-99.99,,,0.00,Acu-Link.com,2013-10-30 20:20:00,
2013-10-30 15:35:00,76.1,75.5,29.80,South,180,6.3,-999.0,98,-99.99,,,0.00,Acu-Link.com,2013-10-30 20:35:00,
2013-10-30 15:51:00,76.8,76.2,29.78,SSE,157,4.3,-999.0,98,-99.99,,,0.00,Acu-Link.com,2013-10-30 20:51:00,
2013-10-30 16:06:00,77.0,76.4,29.78,SSW,202,3.8,-999.0,98,-99.99,,,0.00,Acu-Link.com,2013-10-30 21:06:00,
2013-10-30 16:21:00,77.0,76.4,29.78,South,180,7.8,-999.0,98,-99.99,,,0.00,Acu-Link.com,2013-10-30 21:21:00,
2013-10-30 16:36:00,77.0,76.4,29.77,South,180,4.3,-999.0,98,-99.99,,,0.00,Acu-Link.com,2013-10-30 21:36:00,
2013-10-30 16:51:00,77.0,76.4,29.77,South,180,2.7,-999.0,98,-99.99,,,0.00,Acu-Link.com,2013-10-30 21:51:00,
2013-10-30 17:07:00,77.2,76.6,29.76,SSW,202,3.8,-999.0,98,-99.99,,,0.00,Acu-Link.com,2013-10-30 22:07:00,
2013-10-30 17:22:00,77.2,76.6,29.77,SSE,157,4.3,-999.0,98,-99.99,,,0.00,Acu-Link.com,2013-10-30 22:22:00,
2013-10-30 17:37:00,76.1,75.5,29.75,SSE,157,0.0,-999.0,98,-99.99,,,0.00,Acu-Link.com,2013-10-30 22:37:00,
2013-10-30 17:52:00,75.7,75.1,29.75,SSE,157,2.7,-999.0,98,-99.99,,,0.00,Acu-Link.com,2013-10-30 22:52:00,
2013-10-30 18:07:00,75.0,74.4,29.75,SSE,157,2.7,-999.0,98,-99.99,,,0.00,Acu-Link.com,2013-10-30 23:07:00,
2013-10-30 18:23:00,74.5,73.9,29.76,West,270,0.0,-999.0,98,-99.99,,,0.00,Acu-Link.com,2013-10-30 23:23:00,
2013-10-30 18:38:00,73.9,73.3,29.76,South,180,0.0,-999.0,98,-99.99,,,0.00,Acu-Link.com,2013-10-30 23:38:00,
2013-10-30 18:53:00,73.0,72.4,29.77,South,180,0.0,-999.0,98,-99.99,,,0.00,Acu-Link.com,2013-10-30 23:53:00,
2013-10-30 19:08:00,72.1,71.5,29.77,WSW,247,0.0,-999.0,98,-99.99,,,0.00,Acu-Link.com,2013-10-31 00:08:00,
2013-10-30 19:23:00,72.0,71.4,29.77,South,180,0.0,-999.0,98,-99.99,,,0.00,Acu-Link.com,2013-10-31 00:23:00,
2013-10-30 19:39:00,71.6,71.0,29.76,SSE,157,0.0,-999.0,98,-99.99,,,0.00,Acu-Link.com,2013-10-31 00:39:00,
2013-10-30 19:54:00,71.4,70.8,29.76,SSE,157,0.0,-999.0,98,-99.99,,,0.00,Acu-Link.com,2013-10-31 00:54:00,
2013-10-30 20:09:00,71.2,70.6,29.77,South,180,0.0,-999.0,98,-99.99,,,0.00,Acu-Link.com,2013-10-31 01:09:00,
2013-10-30 20:24:00,71.1,70.5,29.77,South,180,0.0,-999.0,98,-99.99,,,0.00,Acu-Link.com,2013-10-31 01:24:00,
2013-10-30 20:40:00,70.9,70.3,29.78,South,180,0.0,-999.0,98,-99.99,,,0.00,Acu-Link.com,2013-10-31 01:40:00,
2013-10-30 20:55:00,70.5,69.9,29.78,SSE,157,0.0,-999.0,98,-99.99,,,0.00,Acu-Link.com,2013-10-31 01:55:00,
2013-10-30 21:10:00,70.7,70.1,29.77,SE,135,0.0,-999.0,98,-99.99,,,0.00,Acu-Link.com,2013-10-31 02:10:00,
2013-10-30 21:25:00,70.5,69.9,29.76,SW,225,0.0,-999.0,98,-99.99,,,0.00,Acu-Link.com,2013-10-31 02:25:00,
2013-10-30 21:40:00,70.5,69.9,29.75,South,180,0.0,-999.0,98,-99.99,,,0.00,Acu-Link.com,2013-10-31 02:40:00,
2013-10-30 21:56:00,69.8,69.2,29.75,SSE,157,0.0,-999.0,98,-99.99,,,0.00,Acu-Link.com,2013-10-31 02:56:00,
2013-10-30 22:11:00,69.3,68.7,29.73,WSW,247,0.0,-999.0,98,-99.99,,,0.00,Acu-Link.com,2013-10-31 03:11:00,
2013-10-30 22:26:00,69.4,68.8,29.74,South,180,0.0,-999.0,98,-99.99,,,0.00,Acu-Link.com,2013-10-31 03:26:00,
2013-10-30 22:41:00,69.1,68.5,29.74,South,180,0.0,-999.0,98,-99.99,,,0.00,Acu-Link.com,2013-10-31 03:41:00,
2013-10-30 22:56:00,68.7,68.1,29.74,SSE,157,0.0,-999.0,98,-99.99,,,0.00,Acu-Link.com,2013-10-31 03:56:00,
2013-10-30 23:12:00,68.5,63.2,29.75,SSE,157,0.0,-999.0,83,-99.99,,,0.00,Acu-Link.com,2013-10-31 04:12:00,
2013-10-30 23:27:00,69.1,68.8,29.72,South,180,2.7,-999.0,99,-99.99,,,0.00,Acu-Link.com,2013-10-31 04:27:00,
2013-10-30 23:42:00,68.9,68.6,29.72,South,180,0.0,-999.0,99,-99.99,,,0.00,Acu-Link.com,2013-10-31 04:42:00,
2013-10-30 23:57:00,68.9,68.6,29.72,South,180,2.7,-999.0,99,-99.99,,,0.00,Acu-Link.com,2013-10-31 04:57:00,